Location: Memphis
(29.8667°N, 31.2500°E)
Time: 07:58:02
(UTC+00:00)

Cosmos 1666 - Pass Details

Date: 03 March 2021
Orbit: 497 x 518 km, 82.5° (Epoch: 15 April)

Event Time Altitude Azimuth Distance (km) Brightness Sun altitude
Rises 16:49:06 0° 167° (SSE) 2,568 6.1 -12.4°
Reaches altitude 10° 16:51:19 10° 157° (SSE) 1,689 5.1 -12.9°
Maximum altitude 16:54:41 33° 92° (E) 845 3.2 -13.6°
Drops below altitude 10° 16:58:03 10° 27° (NNE) 1,701 5.1 -14.3°
Sets 17:00:18 0° 18° (NNE) 2,589 6.1 -14.8°
